Weather History for CXVN - October, 2012

Change the Weather History Date:

Thursday, October 25, 2012

  Actual Average Record
Temperature  
Mean Temperature 52 °F -  
Max Temperature 65 °F - - ()
Min Temperature 47 °F - - ()
Degree Days  
Heating Degree Days 13    
Growing Degree Days 2 (Base 50)    
Moisture  
Dew Point 50 °F    
Average Humidity 93    
Maximum Humidity 98    
Minimum Humidity 62    
Precipitation  
Precipitation 0.00 in - - ()
Sea Level Pressure  
Sea Level Pressure 30.00 in    
Wind  
Wind Speed 3 mph ()    
Max Wind Speed 8 mph    
Max Gust Speed -    
T = Trace of Precipitation, MM = Missing Value Source: Averaged Metar Reports

Daily Weather History Graph

Daily Weather History Graph

Search for Another Location

Airport or City:

Trip Planner

Search our weather history database for the weather conditions in past years. The results will help you decide how hot, cold, wet, or windy it might be!

Date:

Astronomy

Oct. 25, 2012 Rise Set
Actual Time 7:44 AM EDT 6:18 PM EDT
Civil Twilight 7:14 AM EDT 6:47 PM EDT
Nautical Twilight 6:41 AM EDT 7:20 PM EDT
Astronomical Twilight 6:08 AM EDT 7:53 PM EDT
Moon 4:08 PM EDT (10/25) 3:33 AM EDT (10/25)
Length of Visible Light 11h 32m
Length of Day
10h 34m
Waxing Gibbous, 84% of the Moon is Illuminated
Oct 25
Waxing Gibbous
Oct 29
Full
Nov 6
Last Quarter
Nov 13
New
Nov 20
First Quarter

Hourly Weather History & Observations

Time (EDT) Temp. Dew Point Humidity Pressure Visibility Wind Dir Wind Speed Gust Speed Precip Events Conditions
12:00 AM 48.7 °F 48.0 °F 97% 30.06 in - WNW 3.5 mph - N/A   Unknown
1:00 AM 48.6 °F 47.8 °F 97% 30.05 in - WNW 3.5 mph - N/A   Unknown
2:00 AM 48 °F 48 °F 98% 30.04 in - WNW 4.6 mph - -  
2:00 AM 48.2 °F 47.7 °F 98% 30.04 in - WNW 4.6 mph - N/A   Unknown
3:00 AM 48.6 °F 48.0 °F 98% 30.04 in - WNW 3.5 mph - N/A   Unknown
4:00 AM 48.6 °F 48.0 °F 98% 30.04 in - WNW 4.6 mph - N/A   Unknown
5:00 AM 48.4 °F 47.8 °F 98% 30.05 in - WNW 5.8 mph - N/A   Unknown
7:00 AM 48.0 °F 47.5 °F 98% 30.04 in - West 2.3 mph - N/A   Unknown
8:00 AM 48 °F 47 °F 96% 30.04 in - NW 2.3 mph - -  
8:00 AM 47.7 °F 47.1 °F 98% 30.04 in - NW 2.3 mph - N/A   Unknown
10:00 AM 50.0 °F 49.5 °F 98% 30.05 in - NNW 2.3 mph - N/A   Unknown
11:00 AM 51.6 °F 51.1 °F 98% 30.06 in - NW 4.6 mph - N/A   Unknown
12:00 PM 52.7 °F 52.2 °F 98% 30.04 in - NE 3.5 mph - N/A   Unknown
1:00 PM 54.3 °F 53.6 °F 97% 30.01 in - NE 3.5 mph - N/A   Unknown
2:00 PM 54 °F 51 °F 84% 30.00 in - NNW 4.6 mph - -  
2:00 PM 53.6 °F 50.5 °F 89% 30.00 in - NNW 4.6 mph - N/A   Unknown
3:00 PM 54.0 °F 50.4 °F 88% 29.98 in - ENE 3.5 mph - N/A   Unknown
4:00 PM 55.4 °F 51.1 °F 85% 29.96 in - East 4.6 mph - N/A   Unknown
5:00 PM 55.6 °F 51.8 °F 87% 29.95 in - ENE 3.5 mph - N/A   Unknown
6:00 PM 57.0 °F 52.3 °F 84% 29.94 in - South 1.2 mph - N/A   Unknown
7:00 PM 52.5 °F 50.5 °F 93% 29.94 in - WNW 2.3 mph - N/A   Unknown
8:00 PM 50 °F 48 °F 90% 29.94 in - WNW 3.5 mph - -  
8:00 PM 49.8 °F 48.0 °F 94% 29.94 in - WNW 3.5 mph - N/A   Unknown
9:00 PM 48.6 °F 47.1 °F 95% 29.92 in - SW 1.2 mph - N/A   Unknown
10:00 PM 54.5 °F 52.3 °F 92% 29.90 in - SSE 4.6 mph - N/A   Unknown
11:00 PM 65.8 °F 52.5 °F 62% 29.89 in - SSW 8.1 mph - N/A   Unknown